Fredericksburg, VA

10:07 AM EST on January 20, 2017 (GMT -0500)
Fredericksburg

Weather History for KEZF - June, 2013

Change the Weather History Date:

Wednesday, June 26, 2013

  Actual Average (KNYG) Record (KNYG)
Temperature  
Mean Temperature 80 °F -  
Max Temperature 91 °F 82 °F 97 °F (1997)
Min Temperature 70 °F 64 °F 61 °F (2004)
Cooling Degree Days 16    
Growing Degree Days 30 (Base 50)    
Moisture  
Dew Point 71 °F    
Average Humidity 81    
Maximum Humidity 98    
Minimum Humidity 52    
Precipitation  
Precipitation 0.25 in - - ()
Sea Level Pressure  
Sea Level Pressure 29.89 in    
Wind  
Wind Speed 4 mph (SW)    
Max Wind Speed 31 mph    
Max Gust Speed 50 mph    
Visibility 10 miles    
Events Rain    
Averages and records for this station are not official NWS values.
T = Trace of Precipitation, MM = Missing Value Source: NWS Daily Summary

Daily Weather History Graph

Daily Weather History Graph

Search for Another Location

Airport or City:

Trip Planner

Search our weather history database for the weather conditions in past years. The results will help you decide how hot, cold, wet, or windy it might be!

Date:

Astronomy

Jun. 26, 2013 Rise Set
Actual Time 5:48 AM EDT 8:37 PM EDT
Civil Twilight 5:16 AM EDT 9:08 PM EDT
Nautical Twilight 4:36 AM EDT 9:48 PM EDT
Astronomical Twilight 3:51 AM EDT 10:33 PM EDT
Moon 11:03 PM EDT (6/26) 9:34 AM EDT (6/26)
Length of Visible Light 15h 52m
Length of Day
14h 49m
Waning Gibbous, 85% of the Moon is Illuminated
Jun 26
Waning Gibbous
Jun 30
Last Quarter
Jul 8
New
Jul 15
First Quarter
Jul 22
Full

Hourly Weather History & Observations

Time (EDT) Temp. Heat Index Dew Point Humidity Pressure Visibility Wind Dir Wind Speed Gust Speed Precip Events Conditions
12:15 AM 78.6 °F - 70.7 °F 77% 29.93 in 10.0 mi Calm Calm - N/A   Clear
12:35 AM 79.7 °F - 70.9 °F 74% 29.91 in 10.0 mi South 9.2 mph - N/A   Clear
12:55 AM 78.6 °F - 70.9 °F 77% 29.93 in 10.0 mi North 5.8 mph - N/A   Clear
1:15 AM 79.3 °F - 70.7 °F 75% 29.94 in 10.0 mi Calm Calm - N/A   Clear
1:35 AM 77.4 °F - 70.7 °F 80% 29.93 in 10.0 mi SW 4.6 mph - N/A   Clear
1:55 AM 75.2 °F - 70.9 °F 86% 29.92 in 10.0 mi South 3.5 mph - N/A   Clear
2:15 AM 74.5 °F - 71.2 °F 90% 29.91 in 10.0 mi SSW 4.6 mph - N/A   Clear
2:35 AM 74.8 °F - 70.9 °F 87% 29.90 in 10.0 mi South 3.5 mph - N/A   Unknown
2:55 AM 76.5 °F - 70.7 °F 82% 29.90 in 10.0 mi South 3.5 mph - N/A   Unknown
3:15 AM 76.1 °F - 70.7 °F 83% 29.90 in 10.0 mi North 4.6 mph - N/A   Unknown
3:35 AM 76.1 °F - 71.1 °F 84% 29.90 in 10.0 mi Calm Calm - N/A   Unknown
3:55 AM 75.0 °F - 70.9 °F 87% 29.90 in 10.0 mi South 4.6 mph - N/A   Unknown
4:15 AM 75.4 °F - 71.6 °F 88% 29.89 in 10.0 mi SSW 6.9 mph - N/A   Unknown
4:35 AM 75.2 °F - 71.1 °F 87% 29.89 in 10.0 mi South 4.6 mph - N/A   Unknown
4:55 AM 75.2 °F - 71.1 °F 87% 29.88 in 10.0 mi Calm Calm - N/A   Unknown
5:15 AM 74.8 °F - 71.2 °F 88% 29.90 in 10.0 mi Calm Calm - N/A   Unknown
5:35 AM 74.3 °F - 71.6 °F 91% 29.91 in 10.0 mi NW 3.5 mph - N/A   Unknown
5:55 AM 73.9 °F - 71.8 °F 93% 29.91 in 10.0 mi Calm Calm - N/A   Unknown
6:15 AM 73.8 °F - 71.8 °F 93% 29.91 in 10.0 mi SSW 3.5 mph - N/A   Unknown
6:35 AM 73.8 °F - 72.0 °F 94% 29.91 in 10.0 mi Calm Calm - N/A   Unknown
6:55 AM 74.8 °F - 72.5 °F 92% 29.92 in 10.0 mi Calm Calm - N/A   Unknown
7:15 AM 75.4 °F - 72.5 °F 91% 29.91 in 10.0 mi South 6.9 mph - N/A   Unknown
7:35 AM 76.1 °F - 72.5 °F 89% 29.91 in 10.0 mi SSW 4.6 mph - N/A   Unknown
7:55 AM 76.5 °F - 71.1 °F 83% 29.92 in 10.0 mi WSW 5.8 mph - N/A   Unknown
8:15 AM 77.5 °F - 71.2 °F 81% 29.93 in 10.0 mi WNW 4.6 mph - N/A   Unknown
8:35 AM 77.9 °F - 71.8 °F 81% 29.93 in 10.0 mi Calm Calm - N/A   Unknown
8:55 AM 78.4 °F - 72.0 °F 80% 29.93 in 10.0 mi SSW 4.6 mph - N/A   Unknown
9:15 AM 79.7 °F - 72.0 °F 77% 29.92 in 10.0 mi SW 3.5 mph - N/A   Unknown
9:35 AM 80.6 °F 84.6 °F 71.8 °F 74% 29.91 in 10.0 mi Calm Calm - N/A   Unknown
9:55 AM 82.2 °F 86.9 °F 71.4 °F 70% 29.91 in 10.0 mi Calm Calm - N/A   Clear
10:15 AM 83.3 °F 88.2 °F 71.4 °F 67% 29.90 in 10.0 mi Calm Calm - N/A   Unknown
10:55 AM 85.8 °F 91.5 °F 71.2 °F 62% 29.90 in 10.0 mi SSE 3.5 mph - N/A   Clear
11:15 AM 86.0 °F 91.8 °F 71.4 °F 62% 29.90 in 10.0 mi SW 3.5 mph - N/A   Clear
11:35 AM 87.3 °F 93.6 °F 71.6 °F 60% 29.90 in 10.0 mi East 5.8 mph - N/A   Clear
11:55 AM 88.3 °F 95.9 °F 72.9 °F 60% 29.90 in 10.0 mi South 4.6 mph - N/A   Scattered Clouds
12:15 PM 88.0 °F 96.0 °F 73.4 °F 62% 29.90 in 10.0 mi Calm Calm - N/A   Clear
12:35 PM 88.9 °F 96.6 °F 72.7 °F 59% 29.89 in 10.0 mi South 3.5 mph - N/A   Clear
12:55 PM 89.8 °F 97.5 °F 72.7 °F 57% 29.89 in 10.0 mi SW 5.8 mph - N/A   Scattered Clouds
1:15 PM 90.9 °F 98.9 °F 72.5 °F 55% 29.88 in 10.0 mi South 4.6 mph - N/A   Scattered Clouds
1:35 PM 90.9 °F 97.8 °F 71.6 °F 53% 29.88 in 10.0 mi South 4.6 mph - N/A   Clear
1:55 PM 90.5 °F 97.5 °F 71.6 °F 54% 29.87 in 10.0 mi SSW 6.9 mph - N/A   Scattered Clouds
2:15 PM 91.6 °F 98.8 °F 71.4 °F 52% 29.87 in 7.0 mi SSW 8.1 mph - N/A   Scattered Clouds
2:35 PM 91.0 °F 98.2 °F 71.8 °F 53% 29.87 in 10.0 mi SW 4.6 mph - N/A   Scattered Clouds
2:55 PM 91.2 °F 98.0 °F 71.4 °F 52% 29.88 in 10.0 mi WSW 8.1 mph - N/A   Scattered Clouds
3:15 PM 73.8 °F - 66.9 °F 79% 29.91 in 4.0 mi NW 31.1 mph 49.5 mph 0.04 in Rain Heavy Rain
3:35 PM 70.3 °F - 65.8 °F 86% 29.86 in 3.0 mi North - - 0.21 in Rain Rain
3:55 PM 70.7 °F - 67.5 °F 89% 29.84 in 10.0 mi North - - 0.21 in   Scattered Clouds
4:15 PM 72.0 °F - 68.9 °F 90% 29.84 in 10.0 mi North - - N/A   Clear
4:35 PM 73.6 °F - 69.6 °F 87% 29.84 in 10.0 mi North - - N/A   Clear
4:55 PM 74.7 °F - 70.0 °F 85% 29.85 in 10.0 mi North - - N/A   Clear
5:15 PM 75.7 °F - 69.4 °F 81% 29.84 in 10.0 mi North - - N/A   Clear
5:35 PM 76.1 °F - 70.2 °F 82% 29.84 in 10.0 mi North - - N/A   Scattered Clouds
5:55 PM 75.9 °F - 70.5 °F 83% 29.85 in 10.0 mi North - - N/A   Scattered Clouds
6:15 PM 75.0 °F - 70.2 °F 85% 29.87 in 10.0 mi West 6.9 mph - 0.01 in Rain Light Rain
6:35 PM 73.8 °F - 71.8 °F 93% 29.87 in 10.0 mi WNW 6.9 mph - 0.02 in Rain Rain
6:55 PM 73.6 °F - 71.8 °F 94% 29.86 in 7.0 mi Calm Calm - 0.03 in Rain Light Rain
7:15 PM 73.6 °F - 72.0 °F 95% 29.85 in 10.0 mi Calm Calm - N/A   Unknown
7:35 PM 73.6 °F - 72.7 °F 97% 29.85 in 10.0 mi WSW 3.5 mph - N/A   Unknown
7:55 PM 73.6 °F - 72.9 °F 98% 29.84 in 10.0 mi SSW 4.6 mph - N/A   Unknown
8:15 PM 73.6 °F - 72.5 °F 96% 29.84 in 10.0 mi Calm Calm - N/A   Unknown
8:35 PM 73.9 °F - 71.4 °F 92% 29.86 in 10.0 mi WNW 3.5 mph - N/A   Unknown
8:55 PM 73.6 °F - 72.0 °F 95% 29.86 in 10.0 mi SW 4.6 mph - N/A   Unknown
9:15 PM 73.6 °F - 71.6 °F 93% 29.86 in 10.0 mi SW 8.1 mph - N/A   Unknown
9:35 PM 73.2 °F - 71.4 °F 94% 29.86 in 10.0 mi WSW 3.5 mph - 0.01 in   Unknown
9:55 PM 72.7 °F - 70.7 °F 93% 29.87 in 10.0 mi WSW 4.6 mph - 0.01 in   Unknown
10:15 PM 72.7 °F - 70.7 °F 93% 29.87 in 10.0 mi WSW 4.6 mph - N/A   Unknown
10:35 PM 72.5 °F - 70.2 °F 92% 29.86 in 10.0 mi Calm Calm - N/A   Unknown
10:55 PM 72.1 °F - 70.2 °F 93% 29.86 in 10.0 mi Calm Calm - N/A   Unknown
11:15 PM 71.6 °F - 70.2 °F 95% 29.86 in 10.0 mi North - - N/A   Unknown
11:35 PM 71.4 °F - 70.2 °F 96% 29.85 in 10.0 mi North - - N/A   Unknown
11:55 PM 71.6 °F - 69.8 °F 94% 29.85 in 10.0 mi North - - N/A   Clear